Location: Alando
(42.3054°N, 9.2895°E)
Time: 21:57:27
(UTC+00:00)

Cosmos 1461 - Pass Details

Date: 09 April 2020
Orbit: 507 x 659 km, 65.0° (Epoch: 26 May)

Event Time Altitude Azimuth Distance (km) Brightness Sun altitude
Rises 18:57:37 0° 329° (NNW) 2,896 7.4 -11.4°
Reaches altitude 10° 18:59:52 10° 332° (NNW) 2,008 6.5 -11.7°
Maximum altitude 19:04:25 68° 55° (NE) 696 3.2 -12.5°
Enters shadow 19:07:55 18° 136° (SE) 1,613 4.6 -13.1°
